軌道要素
Epoch 2008 Sept. 11.0 TT = JDT 2454720.5
T 2008 Sept. 15.68492 TT MPC
q 2.4314426 (2000.0) P Q
z -0.0003518 Peri. 95.61245 +0.49676861 -0.80147061
+/-0.0000000 Node 318.50772 +0.45178297 +0.56638061
e 1.0008555 Incl. 30.17047 +0.74102165 +0.19198404
From 4534 observations 2006 June 23-2010 May 11, mean residual 0".6.
|